| time (UTC) | temp F | wind direction | speed knots | gust knots | rain 1hr in | rain 24hr in | rain mn in | humidity % | barometer mb |
| 20260505041618 | 60 | 191 | 0.0 | 0.0 | 0.00 | 0.00 | 0.00 | 47 | 1011.5 |
| 20260505041116 | 60 | 192 | 0.0 | 0.9 | 0.00 | 0.00 | 0.00 | 48 | 1011.4 |
| 20260505040613 | 60 | 174 | 0.0 | 0.0 | 0.00 | 0.00 | 0.00 | 48 | 1011.3 |
| 20260505040110 | 60 | 174 | 0.0 | 0.0 | 0.00 | 0.00 | 0.00 | 48 | 1011.3 |
| 20260505035606 | 60 | 174 | 0.0 | 0.0 | 0.00 | 0.00 | 0.00 | 48 | 1011.2 |
| 20260505035103 | 60 | 174 | 0.0 | 0.0 | 0.00 | 0.00 | 0.00 | 48 | 1011.5 |
| 20260505034559 | 61 | 174 | 0.0 | 0.0 | 0.00 | 0.00 | 0.00 | 48 | 1011.4 |
| 20260505034056 | 61 | 174 | 0.0 | 0.0 | 0.00 | 0.00 | 0.00 | 48 | 1011.5 |
| 20260505033553 | 61 | 173 | 0.0 | 0.0 | 0.00 | 0.00 | 0.00 | 48 | 1011.4 |
| 20260505033051 | 62 | 170 | 0.0 | 0.0 | 0.00 | 0.00 | 0.00 | 47 | 1011.3 |
| 20260505032549 | 62 | 182 | 0.0 | 0.0 | 0.00 | 0.00 | 0.00 | 47 | 1011.4 |
| 20260505032045 | 62 | 180 | 0.0 | 0.0 | 0.00 | 0.00 | 0.00 | 46 | 1011.3 |
| 20260505031542 | 63 | 181 | 0.0 | 0.0 | 0.00 | 0.00 | 0.00 | 46 | 1011.3 |
| 20260505031038 | 63 | 181 | 0.9 | 0.9 | 0.00 | 0.00 | 0.00 | 45 | 1011.4 |
| 20260505030536 | 63 | 169 | 0.9 | 0.9 | 0.00 | 0.00 | 0.00 | 44 | 1011.2 |
| 20260505030032 | 64 | 171 | 0.0 | 0.0 | 0.00 | 0.00 | 0.00 | 44 | 1011.3 |
| 20260505025528 | 64 | 164 | 0.9 | 0.9 | 0.00 | 0.00 | 0.00 | 43 | 1011.1 |
| 20260505025027 | 64 | 184 | 0.0 | 0.9 | 0.00 | 0.00 | 0.00 | 43 | 1011.3 |
| 20260505024523 | 64 | 163 | 0.0 | 0.0 | 0.00 | 0.00 | 0.00 | 42 | 1011.2 |
| 20260505024020 | 65 | 190 | 0.0 | 0.0 | 0.00 | 0.00 | 0.00 | 41 | 1011.3 |
| 20260505023517 | 65 | 171 | 0.0 | 0.0 | 0.00 | 0.00 | 0.00 | 40 | 1011.4 |
| 20260505023015 | 65 | 177 | 0.0 | 0.9 | 0.00 | 0.00 | 0.00 | 40 | 1011.2 |
| 20260505022513 | 65 | 186 | 1.7 | 2.6 | 0.00 | 0.00 | 0.00 | 40 | 1011.3 |
| 20260505022010 | 65 | 174 | 0.0 | 0.0 | 0.00 | 0.00 | 0.00 | 40 | 1011.3 |
| 20260505021506 | 65 | 208 | 0.0 | 0.0 | 0.00 | 0.00 | 0.00 | 41 | 1011.4 |
| 20260505021002 | 65 | 186 | 0.0 | 0.0 | 0.00 | 0.00 | 0.00 | 41 | 1011.3 |
| 20260505020457 | 65 | 168 | 0.0 | 0.0 | 0.00 | 0.00 | 0.00 | 41 | 1011.1 |
| 20260505015954 | 65 | 166 | 0.0 | 0.0 | 0.00 | 0.00 | 0.00 | 41 | 1011.2 |
| 20260505015451 | 65 | 190 | 0.0 | 0.0 | 0.00 | 0.00 | 0.00 | 42 | 1011.2 |
| 20260505014948 | 65 | 188 | 0.9 | 0.9 | 0.00 | 0.00 | 0.00 | 42 | 1011.0 |
| 20260505014445 | 65 | 198 | 0.0 | 0.0 | 0.00 | 0.00 | 0.00 | 42 | 1010.8 |
| 20260505013942 | 65 | 163 | 0.0 | 0.0 | 0.00 | 0.00 | 0.00 | 42 | 1010.9 |
| 20260505013439 | 65 | 165 | 0.0 | 0.0 | 0.00 | 0.00 | 0.00 | 42 | 1010.9 |
| 20260505012937 | 65 | 162 | 0.0 | 0.0 | 0.00 | 0.00 | 0.00 | 42 | 1011.1 |
| 20260505012435 | 65 | 162 | 0.0 | 0.0 | 0.00 | 0.00 | 0.00 | 41 | 1011.1 |
| 20260505011931 | 65 | 160 | 0.0 | 0.0 | 0.00 | 0.00 | 0.00 | 41 | 1010.9 |
| 20260505011427 | 66 | 165 | 0.0 | 0.0 | 0.00 | 0.00 | 0.00 | 41 | 1011.1 |
| 20260505010924 | 66 | 165 | 0.0 | 0.9 | 0.00 | 0.00 | 0.00 | 41 | 1011.0 |
| 20260505010420 | 65 | 163 | 0.0 | 0.0 | 0.00 | 0.00 | 0.00 | 41 | 1010.9 |
| 20260505005916 | 65 | 188 | 0.0 | 0.0 | 0.00 | 0.00 | 0.00 | 42 | 1010.9 |
| 20260505005413 | 65 | 184 | 0.0 | 0.0 | 0.00 | 0.00 | 0.00 | 42 | 1010.8 |
| 20260505004911 | 65 | 184 | 0.0 | 0.0 | 0.00 | 0.00 | 0.00 | 42 | 1010.7 |
| 20260505004407 | 66 | 183 | 0.0 | 0.0 | 0.00 | 0.00 | 0.00 | 42 | 1010.7 |
| 20260505003904 | 66 | 184 | 0.0 | 0.0 | 0.00 | 0.00 | 0.00 | 42 | 1010.5 |
| 20260505003401 | 66 | 184 | 0.0 | 0.0 | 0.00 | 0.00 | 0.00 | 41 | 1010.5 |
| 20260505002857 | 66 | 184 | 0.0 | 0.0 | 0.00 | 0.00 | 0.00 | 41 | 1010.7 |
| 20260505002354 | 66 | 182 | 0.0 | 0.0 | 0.00 | 0.00 | 0.00 | 40 | 1010.7 |
| 20260505001853 | 67 | 194 | 0.0 | 0.0 | 0.00 | 0.00 | 0.00 | 40 | 1010.8 |
| 20260505001349 | 67 | 181 | 0.9 | 0.9 | 0.00 | 0.00 | 0.00 | 39 | 1010.6 |
| 20260505000846 | 67 | 186 | 0.0 | 0.0 | 0.00 | 0.00 | 0.00 | 38 | 1010.6 |
| 20260505000344 | 68 | 158 | 0.0 | 0.9 | 0.00 | 0.00 | 0.00 | 37 | 1010.7 |
| 20260504235840 | 68 | 184 | 0.0 | 0.9 | 0.00 | 0.00 | 0.00 | 37 | 1010.5 |
| 20260504235338 | 68 | 156 | 1.7 | 1.7 | 0.00 | 0.00 | 0.00 | 36 | 1010.5 |
| 20260504234834 | 68 | 160 | 0.9 | 1.7 | 0.00 | 0.00 | 0.00 | 35 | 1010.9 |
| 20260504234332 | 68 | 169 | 0.9 | 1.7 | 0.00 | 0.00 | 0.00 | 34 | 1010.7 |
| 20260504233828 | 69 | 183 | 0.9 | 0.9 | 0.00 | 0.00 | 0.00 | 34 | 1010.6 |
| 20260504233324 | 69 | 143 | 1.7 | 1.7 | 0.00 | 0.00 | 0.00 | 33 | 1010.6 |
| 20260504232821 | 69 | 153 | 0.0 | 0.9 | 0.00 | 0.00 | 0.00 | 33 | 1010.6 |
| 20260504232318 | 69 | 180 | 0.9 | 0.9 | 0.00 | 0.00 | 0.00 | 32 | 1010.6 |
| 20260504231815 | 70 | 121 | 1.7 | 2.6 | 0.00 | 0.00 | 0.00 | 31 | 1010.8 |
| 20260504231311 | 70 | 116 | 1.7 | 2.6 | 0.00 | 0.00 | 0.00 | 31 | 1010.6 |
| 20260504230808 | 70 | 88 | 4.3 | 5.2 | 0.00 | 0.00 | 0.00 | 30 | 1010.8 |
| 20260504230306 | 70 | 116 | 1.7 | 1.7 | 0.00 | 0.00 | 0.00 | 31 | 1010.8 |
| 20260504225804 | 70 | 114 | 3.5 | 3.5 | 0.00 | 0.00 | 0.00 | 31 | 1010.8 |
| 20260504225300 | 70 | 137 | 3.5 | 5.2 | 0.00 | 0.00 | 0.00 | 32 | 1010.5 |
| 20260504224757 | 71 | 150 | 6.1 | 9.6 | 0.00 | 0.00 | 0.00 | 32 | 1010.7 |
| 20260504224255 | 71 | 150 | 3.5 | 5.2 | 0.00 | 0.00 | 0.00 | 32 | 1010.5 |
| 20260504223751 | 71 | 181 | 2.6 | 3.5 | 0.00 | 0.00 | 0.00 | 32 | 1010.4 |
| 20260504223247 | 71 | 82 | 3.5 | 6.1 | 0.00 | 0.00 | 0.00 | 31 | 1010.6 |
| 20260504222744 | 72 | 84 | 4.3 | 6.1 | 0.00 | 0.00 | 0.00 | 31 | 1010.4 |
| 20260504222240 | 72 | 157 | 0.9 | 0.9 | 0.00 | 0.00 | 0.00 | 30 | 1010.5 |
| 20260504221738 | 72 | 139 | 1.7 | 1.7 | 0.00 | 0.00 | 0.00 | 30 | 1010.3 |
| 20260504221235 | 72 | 109 | 1.7 | 2.6 | 0.00 | 0.00 | 0.00 | 30 | 1010.5 |
| 20260504220731 | 72 | 157 | 2.6 | 3.5 | 0.00 | 0.00 | 0.00 | 31 | 1010.5 |
| 20260504220229 | 73 | 175 | 4.3 | 6.1 | 0.00 | 0.00 | 0.00 | 29 | 1010.5 |
| 20260504215726 | 73 | 158 | 6.1 | 7.0 | 0.00 | 0.00 | 0.00 | 29 | 1010.3 |
| 20260504215223 | 73 | 142 | 4.3 | 5.2 | 0.00 | 0.00 | 0.00 | 29 | 1010.5 |
| 20260504214718 | 73 | 116 | 4.3 | 6.1 | 0.00 | 0.00 | 0.00 | 29 | 1010.5 |
| 20260504214215 | 73 | 114 | 6.1 | 7.8 | 0.00 | 0.00 | 0.00 | 28 | 1010.5 |
| 20260504213712 | 73 | 184 | 1.7 | 2.6 | 0.00 | 0.00 | 0.00 | 28 | 1010.5 |
| 20260504213208 | 74 | 46 | 3.5 | 3.5 | 0.00 | 0.00 | 0.00 | 28 | 1010.5 |
| 20260504212705 | 74 | 165 | 2.6 | 2.6 | 0.00 | 0.00 | 0.00 | 27 | 1010.5 |
| 20260504212202 | 74 | 144 | 4.3 | 7.0 | 0.00 | 0.00 | 0.00 | 27 | 1010.6 |
| 20260504211659 | 75 | 131 | 5.2 | 7.0 | 0.00 | 0.00 | 0.00 | 26 | 1010.5 |
| 20260504211155 | 77 | 144 | 0.9 | 1.7 | 0.00 | 0.00 | 0.00 | 25 | 1010.4 |
| 20260504210653 | 77 | 173 | 0.9 | 0.9 | 0.00 | 0.00 | 0.00 | 22 | 1010.6 |
| 20260504210149 | 77 | 224 | 0.0 | 0.0 | 0.00 | 0.00 | 0.00 | 22 | 1010.5 |
| 20260504205647 | 77 | 225 | 1.7 | 1.7 | 0.00 | 0.00 | 0.00 | 21 | 1010.4 |
| 20260504205144 | 77 | 154 | 1.7 | 2.6 | 0.00 | 0.00 | 0.00 | 20 | 1010.5 |
| 20260504204643 | 77 | 211 | 0.9 | 1.7 | 0.00 | 0.00 | 0.00 | 21 | 1010.7 |
| 20260504204141 | 77 | 215 | 1.7 | 1.7 | 0.00 | 0.00 | 0.00 | 21 | 1010.5 |
| 20260504203639 | 77 | 247 | 3.5 | 3.5 | 0.00 | 0.00 | 0.00 | 21 | 1010.7 |
| 20260504203137 | 77 | 239 | 3.5 | 3.5 | 0.00 | 0.00 | 0.00 | 21 | 1010.8 |
| 20260504202637 | 77 | 225 | 1.7 | 1.7 | 0.00 | 0.00 | 0.00 | 21 | 1010.7 |
| 20260504202134 | 76 | 163 | 0.9 | 1.7 | 0.00 | 0.00 | 0.00 | 23 | 1010.8 |
| 20260504201631 | 76 | 175 | 4.3 | 5.2 | 0.00 | 0.00 | 0.00 | 22 | 1010.8 |
| 20260504201129 | 76 | 238 | 3.5 | 3.5 | 0.00 | 0.00 | 0.00 | 23 | 1010.9 |
| 20260504200626 | 76 | 233 | 4.3 | 5.2 | 0.00 | 0.00 | 0.00 | 23 | 1011.1 |
| 20260504200122 | 77 | 163 | 1.7 | 2.6 | 0.00 | 0.00 | 0.00 | 23 | 1011.0 |
| 20260504195618 | 76 | 186 | 0.9 | 1.7 | 0.00 | 0.00 | 0.00 | 21 | 1011.1 |
| 20260504195114 | 77 | 240 | 2.6 | 3.5 | 0.00 | 0.00 | 0.00 | 23 | 1011.2 |
| 20260504194611 | 76 | 186 | 0.9 | 1.7 | 0.00 | 0.00 | 0.00 | 22 | 1011.3 |
| 20260504194107 | 75 | 183 | 0.9 | 0.9 | 0.00 | 0.00 | 0.00 | 22 | 1011.5 |
| 20260504193603 | 76 | 243 | 7.0 | 11.3 | 0.00 | 0.00 | 0.00 | 21 | 1011.5 |
| 20260504193102 | 76 | 266 | 4.3 | 5.2 | 0.00 | 0.00 | 0.00 | 22 | 1011.6 |
| 20260504192600 | 75 | 217 | 0.9 | 2.6 | 0.00 | 0.00 | 0.00 | 23 | 1011.6 |
| 20260504192058 | 74 | 244 | 3.5 | 3.5 | 0.00 | 0.00 | 0.00 | 23 | 1011.6 |
| 20260504191556 | 74 | 279 | 5.2 | 6.1 | 0.00 | 0.00 | 0.00 | 23 | 1011.8 |
| 20260504191051 | 75 | 249 | 7.0 | 8.7 | 0.00 | 0.00 | 0.00 | 23 | 1011.9 |
| 20260504190548 | 75 | 259 | 4.3 | 5.2 | 0.00 | 0.00 | 0.00 | 22 | 1011.9 |
| 20260504190044 | 74 | 270 | 7.8 | 8.7 | 0.00 | 0.00 | 0.00 | 24 | 1012.0 |
| 20260504185541 | 75 | 222 | 0.9 | 1.7 | 0.00 | 0.00 | 0.00 | 23 | 1012.0 |
| 20260504185038 | 75 | 181 | 1.7 | 1.7 | 0.00 | 0.00 | 0.00 | 22 | 1012.2 |
| 20260504184533 | 75 | 221 | 0.9 | 2.6 | 0.00 | 0.00 | 0.00 | 22 | 1012.4 |
| 20260504184029 | 74 | 257 | 3.5 | 6.1 | 0.00 | 0.00 | 0.00 | 22 | 1012.3 |
| 20260504183526 | 75 | 171 | 2.6 | 2.6 | 0.00 | 0.00 | 0.00 | 21 | 1012.3 |
| 20260504183024 | 74 | 264 | 3.5 | 6.1 | 0.00 | 0.00 | 0.00 | 22 | 1012.5 |
| 20260504182520 | 75 | 114 | 0.9 | 1.7 | 0.00 | 0.00 | 0.00 | 21 | 1012.5 |
| 20260504182018 | 74 | 196 | 1.7 | 1.7 | 0.00 | 0.00 | 0.00 | 21 | 1012.8 |
| 20260504181515 | 74 | 193 | 2.6 | 3.5 | 0.00 | 0.00 | 0.00 | 21 | 1012.4 |
| 20260504181014 | 73 | 222 | 2.6 | 2.6 | 0.00 | 0.00 | 0.00 | 21 | 1012.5 |
| 20260504180512 | 73 | 264 | 3.5 | 6.1 | 0.00 | 0.00 | 0.00 | 23 | 1012.6 |
| 20260504180010 | 73 | 251 | 4.3 | 5.2 | 0.00 | 0.00 | 0.00 | 22 | 1012.6 |
| 20260504175507 | 74 | 261 | 7.0 | 8.7 | 0.00 | 0.00 | 0.00 | 21 | 1012.9 |
| 20260504175004 | 73 | 229 | 1.7 | 2.6 | 0.00 | 0.00 | 0.00 | 21 | 1013.0 |
| 20260504174502 | 75 | 253 | 4.3 | 7.0 | 0.00 | 0.00 | 0.00 | 21 | 1012.9 |
| 20260504173959 | 73 | 170 | 0.9 | 0.9 | 0.00 | 0.00 | 0.00 | 22 | 1013.0 |
| 20260504173455 | 74 | 262 | 3.5 | 3.5 | 0.00 | 0.00 | 0.00 | 21 | 1013.0 |
| 20260504172953 | 74 | 193 | 0.0 | 0.9 | 0.00 | 0.00 | 0.00 | 21 | 1013.2 |
| 20260504172448 | 73 | 118 | 0.9 | 0.9 | 0.00 | 0.00 | 0.00 | 20 | 1013.2 |
| 20260504171945 | 73 | 233 | 0.9 | 1.7 | 0.00 | 0.00 | 0.00 | 21 | 1013.3 |
| 20260504171443 | 72 | 243 | 1.7 | 2.6 | 0.00 | 0.00 | 0.00 | 21 | 1013.4 |
| 20260504170939 | 72 | 245 | 6.1 | 7.8 | 0.00 | 0.00 | 0.00 | 21 | 1013.4 |
| 20260504170436 | 72 | 251 | 4.3 | 5.2 | 0.00 | 0.00 | 0.00 | 22 | 1013.1 |
| 20260504160355 | 70 | 246 | 1.7 | 2.6 | 0.00 | 0.00 | 0.00 | 24 | 1013.9 |
| 20260504150820 | 68 | 273 | 3.5 | 3.5 | 0.00 | 0.00 | 0.00 | 22 | 1014.5 |
| 20260504150316 | 68 | 257 | 3.5 | 3.5 | 0.00 | 0.00 | 0.00 | 23 | 1014.7 |
| 20260504141246 | 64 | 243 | 2.6 | 2.6 | 0.00 | 0.00 | 0.00 | 29 | 1015.2 |
| 20260504140742 | 63 | 222 | 0.0 | 0.0 | 0.00 | 0.00 | 0.00 | 32 | 1014.9 |
| 20260504140238 | 64 | 256 | 4.3 | 6.1 | 0.00 | 0.00 | 0.00 | 32 | 1015.0 |
| 20260504130707 | 58 | 251 | 3.5 | 3.5 | 0.00 | 0.00 | 0.00 | 38 | 1015.1 |
| 20260504130203 | 58 | 267 | 4.3 | 5.2 | 0.00 | 0.00 | 0.00 | 38 | 1015.1 |
| 20260504120127 | 54 | 247 | 1.7 | 2.6 | 0.00 | 0.00 | 0.00 | 43 | 1015.4 |
| 20260504110554 | 50 | 218 | 0.0 | 0.0 | 0.00 | 0.00 | 0.00 | 51 | 1015.7 |
| 20260504100516 | 50 | 200 | 0.0 | 0.0 | 0.00 | 0.00 | 0.00 | 51 | 1015.7 |
| 20260504081909 | 50 | 216 | 0.0 | 0.0 | 0.00 | 0.00 | 0.00 | 48 | 1016.1 |
| 20260504081406 | 50 | 219 | 0.0 | 0.0 | 0.00 | 0.00 | 0.00 | 47 | 1016.3 |
| 20260504080902 | 50 | 220 | 0.0 | 0.0 | 0.00 | 0.00 | 0.00 | 47 | 1016.2 |
| 20260504080359 | 50 | 220 | 0.0 | 0.9 | 0.00 | 0.00 | 0.00 | 46 | 1015.9 |
| 20260504070326 | 49 | 216 | 0.0 | 0.0 | 0.00 | 0.00 | 0.00 | 46 | 1016.3 |
| 20260504060247 | 48 | 216 | 0.0 | 0.0 | 0.00 | 0.00 | 0.00 | 47 | 1016.4 |
| 20260504050715 | 46 | 216 | 0.0 | 0.0 | 0.00 | 0.00 | 0.00 | 47 | 1016.3 |
| 20260504050212 | 46 | 216 | 0.0 | 0.0 | 0.00 | 0.00 | 0.00 | 47 | 1016.2 |
| 20260504045709 | 47 | 216 | 0.0 | 0.0 | 0.00 | 0.00 | 0.00 | 46 | 1016.4 |
| 20260504045209 | 47 | 216 | 0.0 | 0.0 | 0.00 | 0.00 | 0.00 | 46 | 1016.4 |
| 20260504044708 | 47 | 216 | 0.0 | 0.0 | 0.00 | 0.00 | 0.00 | 46 | 1016.4 |
| 20260504044204 | 47 | 216 | 0.0 | 0.0 | 0.00 | 0.00 | 0.00 | 47 | 1016.3 |
| 20260504043701 | 46 | 216 | 0.0 | 0.0 | 0.00 | 0.00 | 0.00 | 47 | 1016.3 |
| 20260504043158 | 46 | 216 | 0.0 | 0.0 | 0.00 | 0.00 | 0.00 | 47 | 1016.3 |
| 20260504042655 | 46 | 216 | 0.0 | 0.0 | 0.00 | 0.00 | 0.00 | 46 | 1016.3 |
| 20260504042152 | 46 | 216 | 0.0 | 0.0 | 0.00 | 0.00 | 0.00 | 46 | 1016.4 |